Date String (YYYY-MM-DD hh:mm:ss) UTC,Instrument flags,Ambient pressure (hPa),Sample flow (lpm),Bypass flow (lpm),Sample temperature (°C),Ambient temperature (°C),ASC tube jacket temperature (°C),LED temperature (°C),Box temperature (°C),Sample RH (%),Span deviation,Mass concentration (μg/m³),Mass concentration (μg/m³),Mass concentration (μg/m³)
DateTimeUTC,F1_M11,P_M11,Q1_M11,Q2_M11,T1_M11,T2_M11,T3_M11,T4_M11,T5_M11,U1_M11,ZSPAN_M11,X2_M11,X0_M11,X1_M11
2021-11-12 19:00:00,,0831.4,5.01,0.00,24.6,24.0,00.0,33.5,26.6,11.6,0000.0,0003.97,0015.10,0003.12
2021-11-12 19:01:00,,0831.4,4.99,0.00,24.7,24.0,00.0,33.5,26.6,11.6,0000.0,0003.94,0014.98,0003.10
2021-11-12 19:02:00,,0831.4,5.00,0.00,24.7,24.0,00.0,33.5,26.6,11.5,0000.0,0003.93,0015.07,0003.06
2021-11-12 19:03:00,,0831.4,5.00,0.00,24.7,24.1,00.0,33.5,26.6,11.5,0000.0,0003.88,0015.04,0003.02
2021-11-12 19:04:00,,0831.3,5.00,0.00,24.7,24.1,00.0,33.5,26.7,11.5,0000.0,0003.89,0014.81,0002.99
2021-11-12 19:05:00,,0831.2,5.00,0.00,24.8,24.1,00.0,33.6,26.7,11.5,0000.0,0003.91,0014.75,0002.96
2021-11-12 19:06:00,,0831.2,5.01,0.00,24.8,24.1,00.0,33.6,26.7,11.5,0000.0,0003.89,0014.86,0002.93
2021-11-12 19:07:00,,0831.2,5.01,0.00,24.8,24.1,00.0,33.6,26.7,11.5,0000.0,0003.86,0014.35,0002.92
2021-11-12 19:08:00,,0831.3,4.99,0.00,24.8,24.2,00.0,33.6,26.7,11.5,0000.0,0003.84,0013.61,0002.91
2021-11-12 19:09:00,,0831.3,4.99,0.00,24.9,24.2,00.0,33.7,26.8,11.5,0000.0,0003.82,0012.11,0002.91
2021-11-12 19:10:00,,0831.2,5.00,0.00,24.9,24.2,00.0,33.7,26.8,11.5,0000.0,0003.84,0012.01,0002.92
2021-11-12 19:11:00,,0831.2,5.01,0.00,24.9,24.2,00.0,33.7,26.8,11.5,0000.0,0003.85,0011.91,0002.92
2021-11-12 19:12:00,,0831.2,5.01,0.00,24.9,24.3,00.0,33.7,26.8,11.5,0000.0,0003.82,0011.94,0002.93
2021-11-12 19:13:00,,0831.2,5.00,0.00,24.9,24.3,00.0,33.8,26.9,11.5,0000.0,0003.82,0011.73,0002.95
2021-11-12 19:14:00,,0831.2,4.99,0.00,25.0,24.3,00.0,33.8,26.9,11.5,0000.0,0003.85,0010.97,0002.94
2021-11-12 19:15:00,,0831.2,5.00,0.00,25.0,24.3,00.0,33.8,26.9,11.5,0000.0,0003.88,0011.19,0002.95
2021-11-12 19:16:00,,0831.1,5.01,0.00,25.0,24.4,00.0,33.8,26.9,11.4,0000.0,0003.86,0012.02,0002.94
2021-11-12 19:17:00,,0831.1,5.00,0.00,25.0,24.4,00.0,33.9,27.0,11.4,0000.0,0003.86,0011.80,0002.95
2021-11-12 19:18:00,,0831.1,4.99,0.00,25.0,24.4,00.0,33.9,27.0,11.4,0000.0,0003.89,0012.54,0002.95
2021-11-12 19:19:00,,0831.1,5.01,0.00,25.1,24.4,00.0,33.9,27.0,11.4,0000.0,0003.93,0013.95,0002.94
2021-11-12 19:20:00,,0831.2,5.01,0.00,25.1,24.4,00.0,33.9,27.0,11.4,0000.0,0003.96,0014.08,0002.95
2021-11-12 19:21:00,,0831.1,5.00,0.00,25.1,24.5,00.0,33.9,27.0,11.3,0000.0,0003.94,0013.95,0002.95
2021-11-12 19:22:00,,0831.0,4.99,0.00,25.1,24.5,00.0,34.0,27.0,11.3,0000.0,0003.90,0013.76,0002.94
2021-11-12 19:23:00,,0831.1,5.00,0.00,25.1,24.5,00.0,34.0,27.0,11.3,0000.0,0003.90,0013.36,0002.95
2021-11-12 19:24:00,,0831.2,4.99,0.00,25.2,24.5,00.0,34.0,27.1,11.2,0000.0,0003.95,0013.17,0002.94
2021-11-12 19:25:00,,0831.2,5.01,0.00,25.2,24.5,00.0,34.0,27.1,11.2,0000.0,0003.95,0013.15,0002.94
2021-11-12 19:26:00,,0831.2,5.00,0.00,25.2,24.5,00.0,34.0,27.1,11.2,0000.0,0003.86,0013.09,0002.92
2021-11-12 19:27:00,,0831.1,4.98,0.00,25.2,24.5,00.0,34.1,27.1,11.2,0000.0,0003.85,0012.51,0002.91
2021-11-12 19:28:00,,0831.0,5.00,0.00,25.2,24.5,00.0,34.1,27.2,11.2,0000.0,0003.82,0011.60,0002.91
2021-11-12 19:29:00,,0831.0,5.00,0.00,25.2,24.6,00.0,34.1,27.2,11.2,0000.0,0003.82,0010.86,0002.90
2021-11-12 19:30:00,,0831.0,4.99,0.00,25.2,24.6,00.0,34.1,27.2,11.2,0000.0,0003.77,0009.33,0002.91
2021-11-12 19:31:00,,0831.0,5.01,0.00,25.3,24.6,00.0,34.1,27.2,11.2,0000.0,0003.73,0008.92,0002.91
2021-11-12 19:32:00,,0831.0,5.00,0.00,25.3,24.6,00.0,34.1,27.2,11.2,0000.0,0003.74,0009.72,0002.91
2021-11-12 19:33:00,,0831.0,4.99,0.00,25.3,24.6,00.0,34.2,27.2,11.1,0000.0,0003.78,0009.68,0002.92
2021-11-12 19:34:00,,0831.0,5.01,0.00,25.3,24.7,00.0,34.2,27.3,11.1,0000.0,0003.79,0009.80,0002.91
2021-11-12 19:35:00,,0831.0,4.99,0.00,25.3,24.7,00.0,34.2,27.3,11.1,0000.0,0003.79,0010.25,0002.92
2021-11-12 19:36:00,,0831.0,5.00,0.00,25.4,24.7,00.0,34.2,27.3,11.1,0000.0,0003.80,0010.64,0002.93
2021-11-12 19:37:00,,0831.0,4.99,0.00,25.4,24.7,00.0,34.2,27.3,11.1,0000.0,0003.82,0010.48,0002.95
2021-11-12 19:38:00,,0831.1,5.00,0.00,25.4,24.7,00.0,34.3,27.3,11.1,0000.0,0003.82,0010.30,0002.97
2021-11-12 19:39:00,,0831.0,4.99,0.00,25.4,24.7,00.0,34.3,27.4,11.1,0000.0,0003.83,0011.79,0002.98
2021-11-12 19:40:00,,0831.0,5.01,0.00,25.4,24.8,00.0,34.3,27.4,11.1,0000.0,0003.81,0011.70,0002.99
2021-11-12 19:41:00,,0831.1,4.99,0.00,25.4,24.8,00.0,34.3,27.3,11.1,0000.0,0003.87,0012.60,0003.03
2021-11-12 19:42:00,,0831.0,4.99,0.00,25.4,24.8,00.0,34.3,27.4,11.1,0000.0,0003.89,0013.60,0003.06
2021-11-12 19:43:00,,0831.0,5.00,0.00,25.5,24.8,00.0,34.4,27.4,11.1,0000.0,0003.88,0012.86,0003.08
2021-11-12 19:44:00,,0831.0,5.01,0.00,25.5,24.8,00.0,34.4,27.4,11.1,0000.0,0003.87,0013.09,0003.09
2021-11-12 19:45:00,,0831.1,5.00,0.00,25.5,24.8,00.0,34.4,27.4,11.0,0000.0,0003.88,0013.84,0003.11
2021-11-12 19:46:00,,0831.0,5.00,0.00,25.5,24.8,00.0,34.4,27.4,11.0,0000.0,0003.86,0013.88,0003.11
2021-11-12 19:47:00,,0831.0,5.00,0.00,25.5,24.8,00.0,34.4,27.4,11.0,0000.0,0003.86,0013.84,0003.12
2021-11-12 19:48:00,,0831.0,5.01,0.00,25.5,24.8,00.0,34.4,27.5,11.0,0000.0,0003.92,0014.03,0003.12
2021-11-12 19:49:00,,0831.1,5.00,0.00,25.5,24.9,00.0,34.4,27.5,11.0,0000.0,0003.94,0013.92,0003.13
2021-11-12 19:50:00,,0831.0,4.99,0.00,25.6,24.9,00.0,34.4,27.5,11.1,0000.0,0003.99,0013.74,0003.14
2021-11-12 19:51:00,,0831.0,5.02,0.00,25.6,24.9,00.0,34.5,27.5,11.1,0000.0,0004.06,0014.32,0003.15
2021-11-12 19:52:00,,0831.1,5.00,0.00,25.6,24.9,00.0,34.5,27.5,11.0,0000.0,0004.05,0014.39,0003.14
2021-11-12 19:53:00,,0831.0,4.99,0.00,25.6,24.8,00.0,34.5,27.5,11.0,0000.0,0004.05,0012.92,0003.14
2021-11-12 19:54:00,,0831.0,5.01,0.00,25.6,24.8,00.0,34.5,27.5,11.0,0000.0,0004.08,0012.96,0003.15
2021-11-12 19:55:00,,0831.0,5.00,0.00,25.5,24.8,00.0,34.5,27.4,11.1,0000.0,0004.11,0012.77,0003.16
2021-11-12 19:56:00,,0831.0,5.00,0.00,25.6,24.8,00.0,34.5,27.4,11.1,0000.0,0004.11,0012.19,0003.16
2021-11-12 19:57:00,,0831.0,5.01,0.00,25.6,24.8,00.0,34.5,27.4,11.1,0000.0,0004.07,0011.73,0003.16
2021-11-12 19:58:00,,0831.0,4.98,0.00,25.6,24.8,00.0,34.5,27.4,11.0,0000.0,0004.04,0011.41,0003.16
2021-11-12 19:59:00,,0831.0,5.01,0.00,25.6,24.9,00.0,34.5,27.5,11.0,0000.0,0004.03,0011.85,0003.16
